Wind_Speed
38 37 37 37 36 34 32 31 29 27 26 25 23 21 19 16 15 13 13 13 15 15 14 13 12 12 13 14 15 15 12 9 10 10 9 9 9 10 12 12 10 9
40 39 38 37 36 35 34 32 30 28 27 26 24 22 20 18 17 16 14 13 14 16 16 15 14 13 14 13 14 16 14 10 10 11 11 10 10 10 11 13 12 11
41 41 40 39 38 37 35 34 32 30 29 27 25 23 22 21 20 19 18 15 14 15 17 17 16 16 15 14 14 15 14 12 11 11 11 12 11 10 10 12 13 13
43 42 41 40 39 38 36 35 34 32 30 29 27 25 23 22 22 21 21 20 17 16 16 17 17 17 16 16 15 16 15 14 13 12 12 12 12 11 10 11 13 13
44 42 42 40 39 38 38 37 36 34 33 31 28 26 25 24 23 23 23 23 21 18 17 17 17 17 17 17 16 16 16 15 15 15 13 12 12 12 12 11 12 12
45 44 43 41 40 39 39 38 37 36 34 32 30 28 26 25 25 24 24 25 23 21 19 19 19 18 18 18 17 17 16 17 16 16 15 14 13 13 13 13 12 12
47 45 43 42 41 40 40 39 38 37 35 33 32 30 28 27 27 25 25 25 24 23 22 21 21 21 19 18 18 18 17 17 17 17 17 16 15 14 15 15 13 13
48 46 44 43 42 41 40 39 38 37 36 34 33 32 30 29 29 28 26 26 25 25 24 23 23 23 22 20 19 19 18 18 18 18 18 17 16 16 15 16 15 15
48 47 46 45 44 43 41 40 39 37 36 36 34 33 32 31 31 29 28 27 27 26 25 24 23 23 24 23 21 20 20 19 19 19 19 18 17 16 16 16 16 16
48 48 47 46 45 44 42 41 40 38 37 36 35 34 33 33 32 32 30 29 29 28 26 25 24 24 24 24 23 22 21 20 20 20 19 18 17 16 16 16 16 16
49 48 48 47 46 45 43 41 40 39 38 37 36 35 34 34 34 34 33 32 31 30 28 26 25 24 24 23 23 23 22 21 20 20 19 19 18 17 17 17 17 17
49 49 49 48 47 45 44 42 41 40 39 38 37 36 35 35 34 35 35 34 33 31 30 28 26 25 25 24 23 23 23 23 22 21 20 19 18 18 17 17 17 17
50 50 49 48 47 46 44 43 42 40 39 38 37 37 37 36 35 35 36 35 34 33 31 29 28 27 26 25 24 24 23 23 23 22 22 21 20 19 17 17 17 17
50 50 49 48 47 46 45 44 43 41 40 38 38 38 38 38 36 36 36 35 35 34 32 31 30 29 28 27 27 25 24 24 23 23 23 22 22 21 19 19 18 17
49 49 49 48 48 47 46 45 43 41 40 38 38 38 39 39 38 36 36 36 35 34 33 32 31 31 31 29 28 27 25 25 24 24 23 23 22 22 21 20 19 18
48 49 48 48 49 48 47 46 44 42 41 39 38 38 38 39 39 38 37 36 36 35 35 34 33 32 32 31 29 28 26 25 25 24 24 23 23 22 22 21 20 20
46 47 48 48 49 48 47 46 45 43 41 40 39 37 37 39 40 40 38 37 36 36 36 36 35 33 32 32 30 29 28 27 26 25 24 24 23 23 22 22 21 21
45 46 47 48 48 48 47 46 45 44 42 41 40 39 37 38 40 41 39 38 37 36 36 36 35 33 32 32 30 29 29 29 28 27 26 25 25 24 23 22 22 21
45 45 46 48 48 48 47 46 46 45 44 43 42 41 39 38 39 40 40 38 37 36 36 35 34 33 33 32 31 30 29 29 29 29 28 27 27 26 25 24 24 23
45 45 46 47 48 48 47 47 47 46 45 44 43 43 42 39 38 39 40 39 38 37 36 35 33 32 32 31 31 30 29 29 29 29 30 30 29 28 27 26 25 24
47 46 46 46 47 48 48 47 47 47 46 45 44 44 44 42 39 39 40 41 39 38 37 36 34 32 30 29 28 28 29 30 30 30 30 31 30 29 28 27 26 26
48 47 46 46 47 48 49 48 48 48 48 46 45 45 44 43 41 39 40 41 41 40 38 37 36 33 30 28 26 25 26 28 29 30 30 30 31 30 30 29 27 27
48 48 47 47 47 48 49 49 48 48 48 47 47 46 45 44 43 41 40 40 42 42 41 39 37 35 32 30 27 25 24 24 26 27 28 29 30 30 30 30 30 29
49 48 47 47 48 49 49 50 49 48 48 48 48 47 46 44 44 43 41 40 41 43 43 41 38 36 34 31 29 27 26 25 24 24 26 27 28 29 31 32 32 31
48 48 48 48 48 49 50 50 49 48 48 48 48 47 46 44 43 43 43 42 41 42 43 43 41 38 36 33 31 29 28 27 26 26 26 26 27 27 29 31 33 33
48 48 49 49 49 49 49 49 49 48 48 48 49 48 46 44 43 43 43 43 42 42 43 44 43 41 38 35 33 32 31 29 29 29 29 28 28 27 27 28 31 32
Wind_Direction
214 215 215 216 218 220 220 220 219 218 219 222 227 231 235 237 235 231 225 216 214 218 216 210 205 200 197 192 192 201 208 200 189 186 185 186 185 177 165 163 172 185
216 217 218 218 219 221 223 224 224 224 224 226 228 229 232 235 234 232 231 222 214 215 217 216 211 206 207 204 197 203 210 204 196 194 190 192 199 196 179 169 176 187
217 218 219 220 221 222 224 226 228 229 229 229 230 228 227 228 229 229 230 228 221 216 217 218 216 213 213 209 203 207 212 208 204 203 198 198 202 205 197 177 174 181
218 220 220 222 222 223 225 226 228 230 230 230 231 231 226 223 224 224 225 228 226 220 217 218 219 219 217 214 210 210 213 210 206 207 206 205 204 206 209 193 177 178
219 220 221 222 223 224 225 226 228 230 230 230 231 231 228 223 221 220 220 223 224 222 218 217 220 221 219 220 216 214 215 212 209 210 210 209 209 207 211 210 197 191
220 221 222 223 224 225 225 226 229 230 231 231 231 230 227 224 223 221 219 220 222 221 218 216 219 221 220 221 221 218 218 216 212 212 213 210 210 211 213 216 216 212
220 221 222 223 224 224 226 227 227 229 231 231 231 228 225 223 223 223 221 220 220 220 219 218 218 222 222 219 221 221 220 220 217 216 217 214 210 213 215 218 222 222
220 220 221 222 223 224 225 226 226 227 229 230 230 227 223 222 223 224 224 223 221 220 219 219 219 222 224 221 221 222 221 222 222 221 221 218 215 215 216 219 223 227
219 220 221 221 222 223 224 225 225 226 227 228 228 227 223 221 221 224 225 225 225 222 220 219 218 221 224 224 223 223 223 222 223 226 226 223 221 220 220 222 226 230
219 219 220 220 221 222 223 224 224 225 226 226 227 226 223 220 220 222 225 226 226 225 222 220 218 219 222 224 224 224 224 223 223 226 230 229 226 223 223 226 230 234
219 219 219 220 220 221 222 224 224 224 223 224 224 223 223 221 219 220 223 225 226 227 225 221 218 219 221 222 223 225 226 225 224 225 229 232 232 229 226 226 231 234
218 218 219 219 220 220 221 222 223 223 223 222 222 221 221 221 219 219 221 224 227 228 227 224 220 221 223 223 223 224 226 227 227 227 229 233 235 234 232 231 234 235
218 218 219 219 220 220 220 220 221 223 223 222 221 219 219 219 220 219 221 224 226 228 228 226 223 223 225 227 227 226 226 226 228 230 231 235 237 238 238 239 240 239
218 218 218 219 219 219 220 221 220 221 222 222 221 219 217 218 220 220 221 224 226 227 228 228 226 225 226 227 229 230 229 229 229 230 232 235 238 241 243 244 243 242
217 217 217 217 218 218 218 220 220 220 221 222 222 220 217 217 220 222 222 223 224 226 227 228 227 227 227 228 230 232 232 233 233 234 235 237 239 243 245 245 244 243
216 216 216 216 217 217 217 218 219 218 219 220 222 221 217 216 218 221 223 223 224 224 225 226 227 228 229 231 232 234 236 236 237 238 240 241 243 245 245 245 245 244
216 216 216 215 216 217 217 217 217 217 217 219 221 221 218 215 216 219 222 224 225 225 224 225 228 229 231 232 233 236 237 238 240 242 243 245 247 248 248 248 248 248
216 216 216 215 216 217 217 217 217 216 216 216 219 221 219 216 214 217 221 224 225 226 227 227 229 231 232 232 233 236 237 239 241 242 244 247 249 251 252 252 251 252
217 216 216 216 216 217 218 217 216 216 215 215 217 220 221 219 215 214 219 223 225 226 228 229 231 232 233 233 234 235 237 238 239 241 244 247 249 251 253 254 254 254
218 218 218 217 216 217 218 217 216 215 215 214 215 218 220 221 218 214 215 221 225 227 229 231 233 234 234 235 235 235 236 237 239 241 243 245 248 251 252 253 255 255
219 219 219 218 217 216 217 218 217 215 215 214 214 217 220 222 221 217 214 217 222 227 229 232 235 237 237 237 236 236 236 237 238 239 242 244 246 249 251 253 254 254
219 220 219 218 217 216 216 218 218 216 214 213 213 216 220 222 223 221 217 216 219 224 228 232 235 238 239 239 239 238 237 237 238 239 240 242 244 246 249 251 253 253
219 220 220 218 217 217 217 217 217 216 215 214 213 214 217 220 222 223 221 218 218 221 226 230 233 237 239 240 242 241 238 236 237 238 239 241 242 245 246 249 251 252
217 220 221 220 218 218 218 217 217 217 215 214 213 214 216 219 221 222 222 221 219 220 223 227 230 234 237 239 242 242 240 238 236 236 238 239 240 242 244 246 249 251
217 219 222 222 220 219 218 217 217 217 216 214 214 214 215 217 220 220 220 222 222 221 222 224 228 231 234 236 239 241 241 240 239 237 238 240 241 241 243 245 247 250
218 220 222 222 221 220 219 218 217 217 216 215 214 214 214 216 218 220 220 221 223 223 222 223 225 227 229 232 235 237 238 238 238 238 241 244 245 245 246 247 247 249
Height
1557 1559 1561 1563 1565 1567 1569 1571 1573 1575 1576 1577 1578 1579 1581 1582 1583 1584 1586 1587 1588 1589 1590 1591 1592 1593 1595 1595 1597 1597 1598 1598 1599 1599 1600 1600 1601 1601 1602 1602 1603 1604
1554 1556 1559 1561 1562 1564 1566 1568 1571 1572 1574 1575 1576 1578 1579 1581 1582 1583 1584 1585 1587 1588 1589 1590 1591 1592 1593 1594 1595 1596 1597 1598 1598 1599 1599 1600 1600 1601 1601 1602 1602 1603
1551 1553 1555 1557 1559 1562 1563 1565 1568 1569 1571 1573 1574 1576 1577 1579 1580 1581 1582 1583 1585 1586 1587 1588 1590 1591 1592 1593 1594 1595 1595 1596 1597 1598 1598 1599 1599 1600 1600 1601 1601 1602
1547 1550 1552 1554 1556 1559 1561 1563 1564 1566 1568 1570 1571 1573 1575 1577 1578 1579 1580 1581 1583 1584 1585 1587 1588 1589 1590 1591 1592 1593 1594 1595 1596 1596 1597 1598 1598 1599 1600 1600 1601 1601
1543 1546 1548 1551 1553 1556 1558 1559 1561 1562 1564 1566 1568 1570 1572 1574 1576 1577 1578 1579 1580 1582 1583 1585 1586 1587 1588 1589 1590 1591 1592 1593 1594 1595 1595 1596 1597 1598 1599 1599 1600 1600
1540 1543 1545 1548 1550 1552 1554 1556 1558 1559 1561 1563 1565 1567 1569 1570 1572 1574 1575 1576 1577 1579 1581 1582 1584 1585 1586 1587 1588 1589 1590 1591 1592 1593 1594 1594 1595 1596 1597 1598 1599 1599
1536 1539 1542 1544 1547 1549 1551 1552 1555 1556 1558 1560 1562 1564 1565 1567 1569 1570 1572 1573 1575 1576 1578 1580 1581 1582 1584 1585 1586 1587 1588 1589 1590 1591 1592 1593 1594 1595 1596 1597 1597 1598
1533 1536 1538 1541 1543 1545 1547 1549 1551 1553 1555 1557 1559 1560 1562 1563 1565 1567 1569 1570 1572 1573 1575 1577 1578 1580 1581 1583 1584 1585 1586 1587 1588 1589 1590 1591 1592 1593 1594 1595 1596 1596
1530 1532 1535 1537 1539 1541 1543 1545 1548 1550 1552 1553 1555 1557 1559 1561 1562 1563 1565 1567 1569 1570 1572 1574 1575 1577 1579 1580 1581 1582 1583 1585 1586 1586 1588 1589 1590 1591 1592 1593 1594 1594
1526 1529 1531 1533 1535 1537 1539 1542 1544 1546 1549 1550 1552 1554 1556 1558 1559 1561 1562 1564 1565 1567 1569 1571 1572 1574 1576 1577 1578 1580 1581 1582 1583 1584 1585 1586 1588 1589 1590 1591 1592 1592
1522 1525 1527 1529 1531 1534 1536 1539 1541 1543 1545 1547 1549 1551 1553 1555 1557 1558 1560 1561 1562 1564 1566 1568 1569 1571 1573 1574 1576 1577 1578 1580 1581 1582 1583 1584 1585 1586 1588 1589 1589 1590
1518 1520 1523 1525 1528 1531 1533 1536 1538 1540 1542 1544 1546 1548 1550 1552 1553 1555 1557 1558 1559 1561 1563 1565 1567 1568 1570 1572 1573 1575 1576 1577 1578 1580 1581 1582 1583 1584 1585 1586 1587 1588
1513 1515 1518 1521 1524 1527 1530 1532 1534 1536 1538 1540 1542 1545 1546 1548 1550 1552 1554 1555 1557 1558 1560 1562 1564 1565 1567 1569 1571 1572 1574 1575 1576 1577 1578 1579 1580 1581 1582 1584 1584 1585
1508 1511 1514 1518 1521 1524 1526 1529 1531 1533 1535 1537 1539 1541 1543 1545 1546 1549 1551 1552 1554 1556 1557 1559 1561 1563 1564 1565 1567 1569 1571 1572 1574 1575 1576 1577 1578 1579 1580 1581 1582 1583
1505 1509 1511 1515 1518 1520 1523 1525 1527 1530 1532 1534 1536 1538 1540 1542 1544 1546 1547 1549 1551 1552 1554 1556 1558 1559 1561 1562 1564 1566 1568 1569 1571 1572 1573 1574 1575 1576 1577 1578 1579 1580
1503 1506 1508 1511 1514 1516 1519 1521 1524 1526 1528 1530 1532 1534 1537 1539 1541 1543 1544 1546 1547 1549 1551 1552 1554 1556 1557 1559 1561 1562 1564 1566 1567 1569 1570 1571 1573 1574 1575 1576 1576 1577
1500 1503 1505 1508 1510 1513 1515 1518 1521 1523 1525 1527 1529 1531 1533 1536 1538 1539 1541 1542 1544 1546 1547 1549 1550 1552 1554 1556 1558 1560 1561 1563 1564 1566 1567 1568 1570 1571 1572 1573 1574 1575
1496 1499 1502 1504 1507 1509 1512 1515 1518 1520 1522 1524 1525 1527 1530 1532 1534 1536 1537 1539 1541 1542 1544 1545 1547 1548 1550 1552 1554 1556 1558 1560 1561 1563 1564 1565 1566 1567 1569 1570 1571 1572
1493 1495 1498 1500 1503 1505 1509 1512 1514 1516 1518 1520 1522 1524 1526 1529 1531 1533 1534 1536 1538 1539 1541 1542 1544 1545 1547 1549 1551 1553 1555 1557 1558 1560 1561 1562 1563 1564 1566 1567 1568 1569
1490 1492 1494 1496 1499 1502 1505 1508 1510 1513 1515 1517 1519 1521 1523 1525 1527 1530 1531 1533 1534 1535 1537 1539 1540 1542 1544 1546 1548 1550 1552 1554 1555 1557 1558 1559 1560 1561 1563 1564 1565 1566
1486 1488 1491 1493 1496 1499 1501 1503 1506 1509 1511 1514 1516 1518 1519 1521 1523 1526 1527 1529 1531 1532 1534 1535 1537 1539 1541 1543 1545 1547 1549 1551 1552 1554 1555 1556 1557 1558 1559 1560 1561 1563
1482 1485 1487 1490 1492 1495 1497 1499 1501 1504 1507 1511 1513 1515 1516 1518 1520 1522 1524 1526 1528 1529 1530 1532 1533 1535 1538 1540 1542 1544 1546 1548 1549 1551 1552 1553 1554 1555 1556 1557 1558 1559
1478 1481 1483 1486 1489 1490 1492 1494 1497 1500 1503 1507 1509 1511 1513 1514 1516 1518 1521 1523 1524 1525 1526 1528 1530 1532 1534 1536 1538 1540 1542 1544 1546 1547 1548 1549 1551 1552 1553 1553 1554 1555
1474 1477 1480 1482 1484 1485 1487 1490 1493 1496 1499 1502 1505 1507 1509 1511 1513 1515 1517 1519 1521 1522 1523 1525 1527 1528 1531 1533 1534 1536 1538 1540 1542 1543 1545 1546 1547 1548 1549 1550 1551 1552
1471 1474 1476 1478 1479 1481 1483 1486 1488 1492 1495 1498 1501 1504 1506 1508 1510 1512 1514 1515 1517 1519 1521 1522 1524 1525 1527 1529 1531 1533 1535 1536 1538 1540 1541 1542 1543 1545 1546 1547 1547 1548
1468 1470 1472 1474 1476 1478 1481 1483 1485 1488 1491 1494 1497 1500 1503 1505 1507 1508 1510 1511 1513 1515 1517 1519 1521 1522 1524 1525 1527 1529 1531 1532 1534 1535 1536 1538 1539 1541 1542 1543 1544 1545